FW4441 Weather Reports


time (UTC)temp
C
wind
direction
speed
KPH
gust
KPH
rain 1hr
cm
rain 24hr
cm
rain mn
cm
humidity
%
barometer
mb
20260510031529 20 182 0.0 3.2 0.00 0.00 0.00 44 1012.5
20260510030030 21 113 0.0 4.8 0.00 0.00 0.00 44 1012.5
20260510021530 22 117 1.6 6.4 0.00 0.00 0.00 39 1012.3
20260510020032 22 242 1.6 4.8 0.00 0.00 0.00 39 1012.4
20260510014532 23 201 1.6 4.8 0.00 0.00 0.00 38 1012.6
20260510011531 23 34 4.8 12.9 0.00 0.00 0.00 35 1012.7
20260510004530 25 38 6.4 12.9 0.00 0.00 0.00 33 1012.9
20260510003031 26 37 8.0 16.1 0.00 0.00 0.00 33 1012.9
20260510001531 25 46 6.4 17.7 0.00 0.00 0.00 33 1013.0
20260510000032 25 44 8.0 20.9 0.00 0.00 0.00 33 1013.1
20260509234530 26 31 9.7 17.7 0.00 0.00 0.00 33 1013.3
20260509233029 27 38 6.4 14.5 0.00 0.00 0.00 34 1013.6
20260509231532 27 25 9.7 16.1 0.00 0.00 0.00 34 1013.8
20260509230030 27 16 9.7 16.1 0.00 0.00 0.00 35 1014.1
20260509224532 27 17 6.4 17.7 0.00 0.00 0.00 36 1014.4
20260509223031 26 19 9.7 16.1 0.00 0.00 0.00 37 1014.6
20260509221646 26 20 11.3 19.3 0.00 0.00 0.00 38 1014.9
20260509220054 26 24 14.5 25.7 0.00 0.00 0.00 38 1015.0
20260509214532 25 27 14.5 22.5 0.00 0.00 0.00 40 1015.2
20260509213106 26 29 14.5 22.5 0.00 0.00 0.00 41 1015.4
20260509211530 26 9 11.3 19.3 0.00 0.00 0.00 41 1015.7
20260509210032 25 9 11.3 17.7 0.00 0.00 0.00 42 1015.8
20260509203031 25 18 12.9 20.9 0.00 0.00 0.00 44 1016.1
20260509200030 24 23 14.5 20.9 0.00 0.00 0.00 46 1016.7
20260509194529 23 4 9.7 19.3 0.00 0.00 0.00 48 1017.0
20260509193031 23 359 9.7 17.7 0.00 0.00 0.00 49 1017.2
20260509191607 22 354 9.7 20.9 0.00 0.00 0.00 50 1017.3
20260509190030 22 308 6.4 14.5 0.00 0.00 0.00 51 1017.5
20260509183031 21 297 4.8 11.3 0.00 0.00 0.00 52 1018.0
20260509181531 21 310 4.8 9.7 0.00 0.00 0.00 53 1018.1
20260509180029 20 260 3.2 9.7 0.00 0.00 0.00 53 1018.1
20260509174530 20 314 3.2 9.7 0.00 0.00 0.00 54 1018.2
20260509173030 18 294 3.2 8.0 0.00 0.00 0.00 56 1018.4
20260509170032 18 332 3.2 8.0 0.00 0.00 0.00 60 1018.9
20260509164532 17 312 1.6 4.8 0.00 0.00 0.00 61 1018.9
20260509163031 16 309 1.6 6.4 0.00 0.00 0.00 64 1019.1
20260509161531 15 329 3.2 8.0 0.00 0.00 0.00 66 1019.2
20260509154530 13 34 6.4 9.7 0.00 0.00 0.00 72 1019.5
20260509153031 12 342 3.2 9.7 0.00 0.00 0.00 75 1019.4
20260509151532 12 320 4.8 8.0 0.00 0.00 0.00 77 1019.3
20260509150030 11 30 1.6 6.4 0.00 0.00 0.00 81 1019.3
20260509143028 8 149 0.0 3.2 0.00 0.00 0.00 85 1019.3
20260509140030 6 189 3.2 6.4 0.00 0.00 0.00 89 1019.1
20260509131554 6 318 0.0 3.2 0.00 0.00 0.00 87 1019.0
20260509130032 7 302 1.6 6.4 0.00 0.00 0.00 86 1018.7
20260509124530 7 173 1.6 4.8 0.00 0.00 0.00 86 1018.7
20260509123030 7 143 0.0 4.8 0.00 0.00 0.00 86 1018.6
20260509121531 7 180 0.0 4.8 0.00 0.00 0.00 85 1018.7
20260509120040 7 145 0.0 3.2 0.00 0.00 0.00 85 1018.6
20260509113029 7 161 1.6 4.8 0.00 0.00 0.00 83 1018.6
20260509111535 8 200 3.2 6.4 0.00 0.00 0.00 81 1018.5
20260509104530 10 36 3.2 9.7 0.00 0.00 0.00 78 1018.6
20260509103032 10 34 4.8 8.0 0.00 0.00 0.00 78 1018.7
20260509101529 10 36 4.8 8.0 0.00 0.00 0.00 78 1018.7
20260509100108 10 39 4.8 8.0 0.00 0.00 0.00 77 1018.7
20260509094529 10 32 6.4 9.7 0.00 0.00 0.00 77 1018.7
20260509093029 10 37 4.8 8.0 0.00 0.00 0.00 76 1018.8
20260509091531 10 20 4.8 6.4 0.00 0.00 0.00 76 1018.9
20260509090028 10 48 3.2 8.0 0.00 0.00 0.00 76 1019.0
20260509084530 10 336 1.6 6.4 0.00 0.00 0.00 77 1019.1
20260509083033 10 289 1.6 8.0 0.00 0.00 0.00 76 1019.2
20260509081531 10 246 4.8 11.3 0.00 0.00 0.00 74 1019.3
20260509080107 11 207 3.2 6.4 0.00 0.00 0.00 74 1019.5
20260509073031 11 185 6.4 14.5 0.00 0.00 0.00 73 1019.5
20260509071531 11 193 6.4 14.5 0.00 0.00 0.00 72 1019.5
20260509070032 11 211 6.4 12.9 0.00 0.00 0.00 70 1019.6
20260509064530 12 240 4.8 11.3 0.00 0.00 0.00 68 1019.7
20260509063031 12 299 0.0 8.0 0.00 0.00 0.00 68 1019.9
20260509061538 12 284 3.2 9.7 0.00 0.00 0.00 68 1019.8
20260509060032 12 290 1.6 4.8 0.00 0.00 0.00 67 1019.8
20260509054529 12 306 1.6 8.0 0.00 0.00 0.00 65 1019.7
20260509053031 13 191 4.8 16.1 0.00 0.00 0.00 64 1019.7
20260509043030 12 146 6.4 11.3 0.00 0.00 0.00 64 1019.3
20260509041646 13 123 1.6 9.7 0.00 0.00 0.00 63 1019.1
20260509040029 13 177 3.2 6.4 0.00 0.00 0.00 63 1018.9
20260509034530 13 223 6.4 9.7 0.00 0.00 0.00 61 1018.6
20260509033031 14 218 8.0 14.5 0.00 0.00 0.00 59 1018.4